Stanley, ID

8:57 AM MDT on July 28, 2017 (GMT -0600)
Stanley

Weather History for KSNT - December, 2013

Change the Weather History Date:

Wednesday, December 25, 2013

  Actual Average Record
Temperature  
Mean Temperature 3 °F 14 °F  
Max Temperature 21 °F 25 °F 40 °F (1980)
Min Temperature -15 °F 3 °F -33 °F (1987)
Degree Days  
Heating Degree Days 62 51  
Month to date heating degree days 1343 1257  
Since 1 July heating degree days 4132 4354  
Cooling Degree Days 0 0  
Month to date cooling degree days 0 0  
Year to date cooling degree days 19 3  
Moisture  
Dew Point -4 °F    
Average Humidity 74    
Maximum Humidity 92    
Minimum Humidity 56    
Precipitation  
Precipitation 0.00 in 0.05 in 0.55 in (1980)
Month to date precipitation 1.47 1.02  
Year to date precipitation 14.06 16.81  
Sea Level Pressure  
Sea Level Pressure 30.76 in    
Wind  
Wind Speed 1 mph (ESE)    
Max Wind Speed 9 mph    
Max Gust Speed 10 mph    
T = Trace of Precipitation, MM = Missing Value Source: NWS Daily Summary

Daily Weather History Graph

Daily Weather History Graph

Search for Another Location

Airport or City:

Trip Planner

Search our weather history database for the weather conditions in past years. The results will help you decide how hot, cold, wet, or windy it might be!

Date:

Astronomy

Dec. 25, 2013 Rise Set
Actual Time 8:13 AM MST 5:06 PM MST
Civil Twilight 7:40 AM MST 5:39 PM MST
Nautical Twilight 7:03 AM MST 6:16 PM MST
Astronomical Twilight 6:28 AM MST 6:51 PM MST
Moon 12:33 AM MST (12/25) 12:23 PM MST (12/25)
Length of Visible Light 9h 58m
Length of Day
8h 52m
Waning Gibbous, 48% of the Moon is Illuminated
Dec 25
Waning Gibbous
Jan 1
New
Jan 7
First Quarter
Jan 15
Full
Jan 23
Last Quarter

Hourly Weather History & Observations

Time (MST) Temp. Windchill Dew Point Humidity Pressure Visibility Wind Dir Wind Speed Gust Speed Precip Events Conditions
12:51 AM -7.1 °F - -9.9 °F 87% 30.73 in - Calm Calm - N/A   Unknown
1:51 AM -6.0 °F - -9.0 °F 87% 30.71 in - Calm Calm - N/A   Unknown
2:51 AM -9.0 °F - -11.9 °F 87% 30.73 in - Calm Calm - N/A   Unknown
3:51 AM -9.9 °F - -14.1 °F 82% 30.74 in - Calm Calm - N/A   Unknown
4:51 AM -11.0 °F - -16.1 °F 78% 30.79 in - Calm Calm - N/A   Unknown
5:51 AM -11.9 °F - -16.1 °F 82% 30.83 in - Calm Calm - N/A   Unknown
6:51 AM -11.9 °F - -17.0 °F 78% 30.85 in - Calm Calm - N/A   Unknown
7:51 AM -13.0 °F - -17.0 °F 82% 30.85 in - Calm Calm - N/A   Unknown
8:51 AM -13.0 °F -22.7 °F -17.0 °F 82% 30.89 in - East 3.5 mph - N/A   Unknown
9:51 AM -6.0 °F - -11.0 °F 79% 30.84 in - Calm Calm - N/A   Unknown
10:51 AM -0.9 °F -8.9 °F -5.1 °F 83% 30.85 in - North 3.5 mph - N/A   Unknown
11:51 AM 1.0 °F - -2.9 °F 83% 30.82 in - Calm Calm - N/A   Unknown
12:51 PM 9.0 °F - 1.0 °F 70% 30.75 in - Calm Calm - N/A   Unknown
1:51 PM 12.9 °F - 5.0 °F 71% 30.70 in - Calm Calm - N/A   Unknown
2:51 PM 16.0 °F - 6.1 °F 65% 30.67 in - Calm Calm - N/A   Unknown
3:51 PM 19.9 °F - 6.1 °F 55% 30.66 in - Calm Calm - N/A   Unknown
4:51 PM 10.0 °F 3.6 °F 5.0 °F 80% 30.71 in - South 3.5 mph - N/A   Unknown
5:51 PM 7.0 °F - 3.9 °F 87% 30.72 in - Calm Calm - N/A   Unknown
6:51 PM 6.1 °F -0.9 °F 3.0 °F 87% 30.74 in - SSW 3.5 mph - N/A   Unknown
7:51 PM 5.0 °F -2.1 °F 1.9 °F 87% 30.74 in - Variable 3.5 mph - N/A   Unknown
8:51 PM 3.9 °F - 1.0 °F 88% 30.76 in - Calm Calm - N/A   Unknown
9:51 PM 8.1 °F 1.4 °F 5.0 °F 87% 30.71 in - ESE 3.5 mph - N/A   Unknown
10:51 PM 3.9 °F - 1.9 °F 91% 30.71 in - Calm Calm - N/A   Unknown
11:51 PM 6.1 °F -2.8 °F 3.0 °F 87% 30.68 in - East 4.6 mph - N/A   Unknown